,

(GMT )
Munich

Weather History for EDDM - October, 2018

Change the Weather History Date:

Friday, October 12, 2018

  Actual Average Record
Temperature  
Mean Temperature 62 °F -  
Max Temperature 75 °F 56 °F 75 °F (2018)
Min Temperature 48 °F 40 °F 32 °F (2015)
Degree Days  
Heating Degree Days 4    
Growing Degree Days 12 (Base 50)    
Moisture  
Dew Point 51 °F    
Average Humidity 76    
Maximum Humidity 100    
Minimum Humidity 41    
Precipitation  
Precipitation 0.00 in - - ()
Sea Level Pressure  
Sea Level Pressure 30.22 in    
Wind  
Wind Speed 2 mph ()    
Max Wind Speed 7 mph    
Max Gust Speed -    
Visibility 6.2 miles    
Events Rain    
Averages and records for this station are not official NWS values.
T = Trace of Precipitation, MM = Missing Value Source: Averaged Metar Reports

Daily Weather History Graph

Daily Weather History Graph

Search for Another Location

Airport or City:

Astronomy

Oct. 12, 2018 Rise Set
Actual Time 7:27 AM CEST 6:30 PM CEST
Civil Twilight 6:56 AM CEST 7:01 PM CEST
Nautical Twilight 6:20 AM CEST 7:37 PM CEST
Astronomical Twilight 5:44 AM CEST 8:13 PM CEST
Moon 10:56 AM CEST (10/12) 8:42 PM CEST (10/12)
Length of Visible Light 12h 05m
Length of Day
11h 02m
Waxing Crescent, 12% of the Moon is Illuminated
Oct 12
Waxing Crescent
Oct 16
First Quarter
Oct 24
Full
Oct 31
Last Quarter
Nov 7
New

Hourly Weather History & Observations

Time (CEST) Temp. Dew Point Humidity Pressure Visibility Wind Dir Wind Speed Gust Speed Precip Events Conditions
12:20 AM 53.6 °F 50.0 °F 88% 30.06 in - Variable 1.2 mph - N/A   Clear
12:50 AM 53.6 °F 50.0 °F 88% 30.09 in 6.2 mi Variable 2.3 mph - N/A Rain Light Rain
1:20 AM 53.6 °F 50.0 °F 88% 30.09 in 6.2 mi East 2.3 mph - N/A Rain Light Rain
1:50 AM 53.6 °F 51.8 °F 94% 30.09 in - Variable 2.3 mph - N/A   Clear
2:20 AM 53.6 °F 50.0 °F 88% 30.09 in - Variable 2.3 mph - N/A   Clear
2:50 AM 53.6 °F 50.0 °F 88% 30.12 in - West 1.2 mph - N/A   Clear
3:20 AM 51.8 °F 50.0 °F 94% 30.12 in - SW 1.2 mph - N/A   Clear
3:50 AM 53.6 °F 50.0 °F 88% 30.12 in - Variable 1.2 mph - N/A   Clear
4:20 AM 53.6 °F 50.0 °F 88% 30.15 in - Variable 1.2 mph - N/A   Clear
4:50 AM 51.8 °F 50.0 °F 94% 30.15 in - SSW 2.3 mph - N/A   Clear
5:20 AM 51.8 °F 50.0 °F 94% 30.15 in - Variable 2.3 mph - N/A   Clear
5:50 AM 51.8 °F 50.0 °F 94% 30.18 in - Variable 2.3 mph - N/A   Clear
6:20 AM 50.0 °F 50.0 °F 100% 30.18 in - Variable 1.2 mph - N/A   Clear
6:50 AM 50.0 °F 48.2 °F 94% 30.18 in - Variable 1.2 mph - N/A   Clear
7:20 AM 48.2 °F 48.2 °F 100% 30.21 in - Variable 1.2 mph - N/A   Clear
7:50 AM 50.0 °F 48.2 °F 94% 30.21 in - Variable 1.2 mph - N/A   Clear
8:20 AM 50.0 °F 50.0 °F 100% 30.21 in - Variable 1.2 mph - N/A   Clear
8:50 AM 53.6 °F 51.8 °F 94% 30.24 in - Variable 2.3 mph - N/A   Clear
9:20 AM 57.2 °F 53.6 °F 88% 30.24 in - Variable 2.3 mph - N/A   Clear
9:50 AM 60.8 °F 51.8 °F 72% 30.27 in - WSW 4.6 mph - N/A   Clear
10:20 AM 64.4 °F 50.0 °F 59% 30.27 in - SSW 4.6 mph - N/A   Clear
10:50 AM 66.2 °F 51.8 °F 60% 30.27 in - WSW 6.9 mph - N/A   Clear
11:20 AM 66.2 °F 51.8 °F 60% 30.27 in - WSW 6.9 mph - N/A   Clear
11:50 AM 68.0 °F 51.8 °F 56% 30.27 in - West 6.9 mph - N/A   Unknown
12:20 PM 69.8 °F 51.8 °F 53% 30.27 in - West 5.8 mph - N/A   Clear
12:50 PM 69.8 °F 51.8 °F 53% 30.27 in - West 5.8 mph - N/A   Clear
1:20 PM 69.8 °F 51.8 °F 53% 30.27 in - SW 3.5 mph - N/A   Clear
1:50 PM 71.6 °F 51.8 °F 50% 30.27 in - Variable 2.3 mph - N/A   Clear
2:20 PM 73.4 °F 50.0 °F 44% 30.27 in - WSW 4.6 mph - N/A   Clear
2:50 PM 73.4 °F 50.0 °F 44% 30.24 in - Variable 2.3 mph - N/A   Clear
3:20 PM 75.2 °F 50.0 °F 41% 30.24 in - Variable 2.3 mph - N/A   Clear
3:50 PM 75.2 °F 50.0 °F 41% 30.24 in - East 5.8 mph - N/A   Clear
4:20 PM 73.4 °F 51.8 °F 47% 30.24 in - East 5.8 mph - N/A   Clear
4:50 PM 73.4 °F 51.8 °F 47% 30.24 in 6.2 mi ESE 4.6 mph - N/A   Unknown
5:20 PM 73.4 °F 50.0 °F 44% 30.24 in - East 4.6 mph - N/A   Clear
5:50 PM 71.6 °F 51.8 °F 50% 30.24 in - NE 3.5 mph - N/A   Clear
6:20 PM 69.8 °F 51.8 °F 53% 30.24 in - East 4.6 mph - N/A   Clear
6:50 PM 66.2 °F 51.8 °F 60% 30.24 in - Variable 2.3 mph - N/A   Clear
7:20 PM 62.6 °F 53.6 °F 72% 30.27 in - North 2.3 mph - N/A   Clear
7:50 PM 57.2 °F 51.8 °F 82% 30.27 in - Variable 2.3 mph - N/A   Clear
8:20 PM 57.2 °F 51.8 °F 82% 30.27 in - Variable 1.2 mph - N/A   Clear
8:50 PM 55.4 °F 51.8 °F 88% 30.27 in - ESE 2.3 mph - N/A   Clear
9:20 PM 53.6 °F 51.8 °F 94% 30.27 in - NNE 1.2 mph - N/A   Clear
9:50 PM 53.6 °F 51.8 °F 94% 30.30 in - Variable 1.2 mph - N/A   Clear
10:20 PM 51.8 °F 50.0 °F 94% 30.30 in - Variable 1.2 mph - N/A   Clear
10:50 PM 50.0 °F 48.2 °F 94% 30.30 in - East 2.3 mph - N/A   Clear
11:20 PM 50.0 °F 50.0 °F 100% 30.27 in - East 2.3 mph - N/A   Clear
11:50 PM 50.0 °F 50.0 °F 100% 30.27 in - Variable 1.2 mph - N/A   Clear